GW3006 Weather Reports


Display with metric or nautical units.
time (UTC)temp
F
wind
direction
speed
MPH
gust
MPH
rain 1hr
in
rain 24hr
in
rain mn
in
humidity
%
barometer
mb
20260506061803 50 5 4.0 12.0 0.00 0.00 0.00 84 1006.0
20260506060903 50 2 3.0 7.0 0.00 0.00 0.00 86 1006.1
20260506050903 48 2 2.0 4.0 0.00 0.00 0.00 86 1005.8
20260506044503 48 5 2.0 6.0 0.00 0.00 0.00 87 1005.7
20260506043603 48 12 2.0 4.0 0.00 0.00 0.00 87 1006.1
20260506042704 48 12 1.0 3.0 0.00 0.00 0.00 87 1006.1
20260506041803 48 10 1.0 3.0 0.00 0.00 0.00 86 1006.1
20260506040924 48 11 2.0 3.0 0.00 0.00 0.00 85 1006.1
20260506040003 48 7 2.0 3.0 0.00 0.00 0.00 85 1006.2
20260506035403 48 11 2.0 3.0 0.00 0.00 0.00 85 1006.0
20260506034503 48 10 2.0 6.0 0.00 0.00 0.00 84 1006.0
20260506033603 49 10 2.0 4.0 0.00 0.00 0.00 84 1006.4
20260506032724 49 12 2.0 6.0 0.00 0.00 0.00 84 1006.1
20260506031804 49 9 2.0 4.0 0.00 0.00 0.00 84 1006.1
20260506030903 49 7 2.0 4.0 0.00 0.00 0.00 84 1006.2
20260506030003 49 6 3.0 6.0 0.00 0.00 0.00 84 1006.3
20260506025403 49 7 3.0 7.0 0.00 0.00 0.00 84 1006.3
20260506024503 49 358 3.0 6.0 0.00 0.00 0.00 85 1006.3
20260506023604 49 1 2.0 4.0 0.00 0.00 0.00 85 1006.3
20260506022703 48 10 2.0 6.0 0.00 0.00 0.00 85 1006.1
20260506021803 49 6 2.0 6.0 0.00 0.00 0.00 85 1006.2
20260506020924 49 1 3.0 7.0 0.00 0.00 0.00 85 1006.6
20260506020004 48 14 2.0 6.0 0.00 0.00 0.00 85 1006.3
20260506015403 48 10 2.0 6.0 0.00 0.00 0.00 85 1006.3
20260506014524 49 9 4.0 7.0 0.00 0.00 0.00 86 1006.3
20260506013603 48 12 3.0 7.0 0.00 0.00 0.00 86 1006.5
20260506012724 48 10 2.0 7.0 0.00 0.00 0.00 87 1006.3
20260506011803 48 14 2.0 6.0 0.00 0.00 0.00 87 1006.4
20260506010904 48 14 2.0 4.0 0.00 0.00 0.00 87 1006.6
20260506010004 49 8 3.0 6.0 0.00 0.00 0.00 87 1006.7
20260506005424 49 7 3.0 7.0 0.00 0.00 0.00 86 1006.5
20260506004503 49 13 2.0 6.0 0.00 0.00 0.00 86 1006.7
20260506003603 49 5 3.0 6.0 0.00 0.00 0.00 86 1006.6
20260506002703 49 5 3.0 7.0 0.00 0.00 0.00 85 1006.8
20260506001824 49 7 2.0 6.0 0.00 0.00 0.00 85 1006.6
20260506000904 50 10 3.0 8.0 0.00 0.00 0.00 84 1006.9
20260506000005 50 16 3.0 8.0 0.00 0.00 0.00 84 1006.7
20260505235403 50 8 2.0 7.0 0.00 0.00 0.00 85 1007.2
20260505234503 50 8 3.0 8.0 0.00 0.00 0.00 85 1007.0
20260505233604 50 8 3.0 9.0 0.00 0.00 0.00 85 1006.8
20260505232703 50 5 3.0 9.0 0.00 0.00 0.00 85 1006.9
20260505231803 50 10 3.0 8.0 0.00 0.00 0.00 86 1007.1
20260505230903 50 6 3.0 7.0 0.00 0.00 0.00 86 1006.9
20260505230003 50 13 3.0 7.0 0.00 0.00 0.00 87 1006.7
20260505225426 50 5 2.0 4.0 0.00 0.00 0.00 87 1007.0
20260505224503 50 360 2.0 4.0 0.00 0.00 0.00 87 1007.1
20260505223603 50 11 2.0 6.0 0.00 0.00 0.00 87 1007.1
20260505222704 50 4 2.0 4.0 0.00 0.00 0.00 87 1007.0
20260505221803 50 14 2.0 6.0 0.00 0.00 0.00 87 1006.9
20260505220903 50 5 3.0 6.0 0.00 0.00 0.00 86 1007.1
20260505220024 50 4 3.0 8.0 0.00 0.00 0.00 86 1007.1
20260505215424 50 3 3.0 8.0 0.00 0.00 0.00 86 1007.0
20260505214503 51 5 3.0 6.0 0.00 0.00 0.00 86 1007.0
20260505213604 51 1 3.0 7.0 0.00 0.00 0.00 86 1007.0
20260505212725 51 359 3.0 7.0 0.00 0.00 0.00 86 1007.3
20260505211803 51 3 3.0 7.0 0.00 0.00 0.00 85 1007.0
20260505210903 51 11 2.0 6.0 0.00 0.00 0.00 85 1006.6
20260505210003 51 1 3.0 8.0 0.00 0.00 0.00 85 1007.0
20260505205424 51 10 3.0 8.0 0.00 0.00 0.00 85 1007.4
20260505204504 51 2 3.0 8.0 0.00 0.00 0.00 85 1006.9
20260505203604 51 360 4.0 9.0 0.00 0.00 0.00 85 1007.0
20260505202725 52 356 3.0 8.0 0.00 0.00 0.00 85 1007.0
20260505201803 52 3 4.0 11.0 0.00 0.00 0.00 85 1006.9
20260505200903 52 6 4.0 11.0 0.00 0.00 0.00 85 1006.8
20260505200003 52 3 4.0 8.0 0.00 0.00 0.00 85 1006.8
20260505195404 52 8 3.0 7.0 0.00 0.00 0.00 85 1006.8
20260505194503 52 16 3.0 8.0 0.00 0.00 0.00 85 1006.8
20260505193603 52 2 4.0 8.0 0.00 0.00 0.00 84 1006.8
20260505192703 52 3 4.0 8.0 0.00 0.00 0.00 84 1006.6
20260505191824 52 355 4.0 7.0 0.00 0.00 0.00 83 1006.4
20260505190903 53 9 4.0 9.0 0.00 0.00 0.00 83 1006.5
20260505190003 53 8 4.0 8.0 0.00 0.00 0.00 83 1006.5
20260505185403 53 2 5.0 9.0 0.00 0.00 0.00 82 1006.6
20260505184505 53 358 4.0 8.0 0.00 0.00 0.00 82 1006.4
20260505183603 54 357 4.0 9.0 0.00 0.00 0.00 82 1006.6
20260505182703 54 6 4.0 11.0 0.00 0.00 0.00 81 1006.5
20260505181804 54 5 4.0 11.0 0.00 0.00 0.00 80 1006.3
20260505180903 55 8 4.0 9.0 0.00 0.00 0.00 79 1006.5
20260505180003 55 7 5.0 14.0 0.00 0.00 0.00 79 1006.4
20260505175403 55 4 5.0 12.0 0.00 0.00 0.00 78 1006.3
20260505174503 56 358 4.0 10.0 0.00 0.00 0.00 78 1006.3
20260505173604 56 3 4.0 11.0 0.00 0.00 0.00 77 1006.2
20260505172724 56 3 5.0 14.0 0.00 0.00 0.00 77 1006.4
20260505171804 56 354 3.0 9.0 0.00 0.00 0.00 77 1006.3
20260505170903 56 7 5.0 11.0 0.00 0.00 0.00 76 1006.4
20260505170003 57 3 4.0 11.0 0.00 0.00 0.00 75 1006.3
20260505165403 57 8 4.0 11.0 0.00 0.00 0.00 74 1006.2
20260505164503 58 359 6.0 11.0 0.00 0.00 0.00 73 1006.1
20260505163603 58 355 4.0 11.0 0.00 0.00 0.00 73 1006.3
20260505162703 58 359 5.0 10.0 0.00 0.00 0.00 73 1005.8
20260505161824 59 2 5.0 11.0 0.00 0.00 0.00 72 1006.0
20260505160903 59 5 6.0 12.0 0.00 0.00 0.00 72 1006.2
20260505152724 60 359 4.0 11.0 0.00 0.00 0.00 74 1006.3
20260505151803 59 348 4.0 12.0 0.00 0.00 0.00 74 1006.4
20260505150903 58 1 6.0 10.0 0.00 0.00 0.00 76 1006.3
20260505124524 59 18 1.0 6.0 0.00 0.00 0.00 76 1007.4
20260505123603 59 352 2.0 4.0 0.00 0.00 0.00 76 1007.2
20260505122724 59 355 2.0 7.0 0.00 0.00 0.00 75 1007.1
20260505121803 59 360 1.0 7.0 0.00 0.00 0.00 76 1007.3
20260505120903 59 5 1.0 6.0 0.00 0.00 0.00 77 1007.2
20260505120003 59 360 1.0 6.0 0.00 0.00 0.00 77 1007.1
20260505115403 60 359 2.0 7.0 0.00 0.00 0.00 76 1007.1
20260505114524 59 10 1.0 4.0 0.00 0.00 0.00 76 1007.2
20260505113604 58 6 2.0 8.0 0.00 0.00 0.00 78 1007.4
20260505112704 59 8 2.0 7.0 0.00 0.00 0.00 77 1007.1
20260505111803 60 1 2.0 8.0 0.00 0.00 0.00 76 1007.4
20260505110903 60 6 3.0 7.0 0.00 0.00 0.00 74 1007.4
20260505101803 56 11 2.0 7.0 0.00 0.00 0.00 80 1007.8
20260505100903 56 357 3.0 8.0 0.00 0.00 0.00 81 1008.0
20260505100004 55 357 3.0 7.0 0.00 0.00 0.00 80 1007.9
20260505095403 55 357 3.0 8.0 0.00 0.00 0.00 82 1007.8
20260505094503 55 8 2.0 6.0 0.00 0.00 0.00 82 1007.9
20260505093603 54 7 2.0 9.0 0.00 0.00 0.00 84 1007.8
20260505092703 54 3 3.0 9.0 0.00 0.00 0.00 85 1007.9
20260505091824 54 10 2.0 6.0 0.00 0.00 0.00 84 1007.9
20260505090903 53 13 2.0 6.0 0.00 0.00 0.00 85 1008.1
20260505090003 53 354 2.0 9.0 0.00 0.00 0.00 85 1008.1
20260505085404 53 356 3.0 9.0 0.00 0.00 0.00 85 1008.0
20260505084503 53 18 3.0 8.0 0.00 0.00 0.00 84 1008.2
20260505083603 53 12 2.0 7.0 0.00 0.00 0.00 84 1008.0
20260505082704 53 357 4.0 8.0 0.00 0.00 0.00 85 1008.0
20260505081803 52 9 2.0 8.0 0.00 0.00 0.00 86 1008.2
20260505080903 52 10 4.0 9.0 0.00 0.00 0.00 86 1008.2
20260505080003 52 5 3.0 7.0 0.00 0.00 0.00 86 1008.2
20260505075403 52 5 3.0 9.0 0.00 0.00 0.00 86 1008.1
20260505074524 53 9 2.0 4.0 0.00 0.00 0.00 87 1008.3
20260505073603 52 1 2.0 8.0 0.00 0.00 0.00 86 1008.4
20260505072703 52 4 2.0 7.0 0.00 0.00 0.00 87 1008.5
20260505071803 52 1 3.0 7.0 0.00 0.00 0.00 86 1008.3
20260505070924 52 11 2.0 6.0 0.00 0.00 0.00 87 1008.4